Location: Mohawk View
(42.7837°N, 73.7885°W)
Time: 14:46:20
(UTC+00:00)

Resurs 01 Rocket - Pass Details

Date: 17 June 2021
Orbit: 635 x 643 km, 97.9° (Epoch: 01 August)

Event Time Altitude Azimuth Distance (km) Brightness Sun altitude
Exits shadow 01:56:22 - 185° (S) 2,270 4.0 -12.0°
Reaches altitude 10° 01:57:01 10° 187° (S) 2,016 3.8 -12.0°
Maximum altitude 02:01:14 46° 261° (W) 858 2.5 -12.6°
Drops below altitude 10° 02:05:29 10° 335° (NNW) 2,030 5.5 -13.1°
Sets 02:07:47 0° 341° (NNW) 2,944 6.5 -13.3°
